Year,Month,Day,Hour,Minute,Value (Times are PST for temperature in C)
2016,08,14,00,00,17.00
2016,08,14,00,01,17.00
2016,08,14,00,02,17.00
2016,08,14,00,03,16.90
2016,08,14,00,04,16.90
2016,08,14,00,05,16.90
2016,08,14,00,06,16.90
2016,08,14,00,07,16.80
2016,08,14,00,08,16.80
2016,08,14,00,09,16.80
2016,08,14,00,10,16.80
2016,08,14,00,11,16.80
2016,08,14,00,12,16.70
2016,08,14,00,13,16.70
2016,08,14,00,14,16.70
2016,08,14,00,15,16.70
2016,08,14,00,16,16.70
2016,08,14,00,17,16.60
2016,08,14,00,18,16.60
2016,08,14,00,19,16.60
2016,08,14,00,20,16.60
2016,08,14,00,21,16.60
2016,08,14,00,22,16.60
2016,08,14,00,23,16.50
2016,08,14,00,24,16.50
2016,08,14,00,25,16.50
2016,08,14,00,26,16.50
2016,08,14,00,27,16.40
2016,08,14,00,28,16.40
2016,08,14,00,29,16.40
2016,08,14,00,30,16.40
2016,08,14,00,31,16.40
2016,08,14,00,32,16.30
2016,08,14,00,33,16.30
2016,08,14,00,34,16.30
2016,08,14,00,35,16.30
2016,08,14,00,36,16.30
2016,08,14,00,37,16.30
2016,08,14,00,38,16.20
2016,08,14,00,39,16.20
2016,08,14,00,40,16.20
2016,08,14,00,41,16.20
2016,08,14,00,42,16.20
2016,08,14,00,43,16.20
2016,08,14,00,44,16.20
2016,08,14,00,45,16.20
2016,08,14,00,46,16.20
2016,08,14,00,47,16.20
2016,08,14,00,48,16.20
2016,08,14,00,49,16.20
2016,08,14,00,50,16.20
2016,08,14,00,51,16.20
2016,08,14,00,52,16.20
2016,08,14,00,53,16.20
2016,08,14,00,54,16.20
2016,08,14,00,55,16.20
2016,08,14,00,56,16.20
2016,08,14,00,57,16.20
2016,08,14,00,58,16.20
2016,08,14,00,59,16.20
2016,08,14,01,00,16.20
2016,08,14,01,01,16.20
2016,08,14,01,02,16.20
2016,08,14,01,03,16.20
2016,08,14,01,04,16.10
2016,08,14,01,05,16.10
2016,08,14,01,06,16.10
2016,08,14,01,07,16.10
2016,08,14,01,08,16.10
2016,08,14,01,09,16.10
2016,08,14,01,10,16.10
2016,08,14,01,11,16.10
2016,08,14,01,12,16.10
2016,08,14,01,13,16.00
2016,08,14,01,14,16.00
2016,08,14,01,15,16.00
2016,08,14,01,16,15.90
2016,08,14,01,17,15.90
2016,08,14,01,18,15.90
2016,08,14,01,19,15.90
2016,08,14,01,20,15.90
2016,08,14,01,21,15.90
2016,08,14,01,22,15.90
2016,08,14,01,23,15.80
2016,08,14,01,24,15.80
2016,08,14,01,25,15.80
2016,08,14,01,26,15.80
2016,08,14,01,27,15.80
2016,08,14,01,28,15.80
2016,08,14,01,29,15.70
2016,08,14,01,30,15.70
2016,08,14,01,31,15.70
2016,08,14,01,32,15.70
2016,08,14,01,33,15.70
2016,08,14,01,34,15.70
2016,08,14,01,35,15.60
2016,08,14,01,36,15.60
2016,08,14,01,37,15.60
2016,08,14,01,38,15.60
2016,08,14,01,39,15.60
2016,08,14,01,40,15.60
2016,08,14,01,41,15.60
2016,08,14,01,42,15.60
2016,08,14,01,43,15.50
2016,08,14,01,44,15.50
2016,08,14,01,45,15.50
2016,08,14,01,46,15.50
2016,08,14,01,47,15.50
2016,08,14,01,48,15.50
2016,08,14,01,49,15.50
2016,08,14,01,50,15.50
2016,08,14,01,51,15.40
2016,08,14,01,52,15.40
2016,08,14,01,53,15.40
2016,08,14,01,54,15.40
2016,08,14,01,55,15.40
2016,08,14,01,56,15.40
2016,08,14,01,57,15.40
2016,08,14,01,58,15.40
2016,08,14,01,59,15.40
2016,08,14,02,00,15.30
2016,08,14,02,01,15.30
2016,08,14,02,02,15.30
2016,08,14,02,03,15.30
2016,08,14,02,04,15.30
2016,08,14,02,05,15.30
2016,08,14,02,06,15.30
2016,08,14,02,07,15.30
2016,08,14,02,08,15.30
2016,08,14,02,09,15.30
2016,08,14,02,10,15.30
2016,08,14,02,11,15.30
2016,08,14,02,12,15.30
2016,08,14,02,13,15.30
2016,08,14,02,14,15.20
2016,08,14,02,15,15.20
2016,08,14,02,16,15.20
2016,08,14,02,17,15.20
2016,08,14,02,18,15.10
2016,08,14,02,19,15.10
2016,08,14,02,20,15.10
2016,08,14,02,21,15.10
2016,08,14,02,22,15.00
2016,08,14,02,23,15.00
2016,08,14,02,24,15.00
2016,08,14,02,25,15.00
2016,08,14,02,26,15.00
2016,08,14,02,27,14.90
2016,08,14,02,28,14.90
2016,08,14,02,29,14.90
2016,08,14,02,30,14.90
2016,08,14,02,31,14.90
2016,08,14,02,32,14.90
2016,08,14,02,33,14.90
2016,08,14,02,34,14.90
2016,08,14,02,35,14.90
2016,08,14,02,36,14.90
2016,08,14,02,37,14.90
2016,08,14,02,38,15.00
2016,08,14,02,39,15.00
2016,08,14,02,40,15.00
2016,08,14,02,41,15.00
2016,08,14,02,42,15.00
2016,08,14,02,43,15.00
2016,08,14,02,44,15.00
2016,08,14,02,45,15.00
2016,08,14,02,46,15.00
2016,08,14,02,47,15.10
2016,08,14,02,48,15.10
2016,08,14,02,49,15.10
2016,08,14,02,50,15.10
2016,08,14,02,51,15.20
2016,08,14,02,52,15.20
2016,08,14,02,53,15.20
2016,08,14,02,54,15.20
2016,08,14,02,55,15.20
2016,08,14,02,56,15.20
2016,08,14,02,57,15.20
2016,08,14,02,58,15.20
2016,08,14,02,59,15.20
2016,08,14,03,00,15.20
2016,08,14,03,01,15.20
2016,08,14,03,02,15.20
2016,08,14,03,03,15.20
2016,08,14,03,04,15.20
2016,08,14,03,05,15.20
2016,08,14,03,06,15.20
2016,08,14,03,07,15.20
2016,08,14,03,08,15.20
2016,08,14,03,09,15.20
2016,08,14,03,10,15.20
2016,08,14,03,11,15.20
2016,08,14,03,12,15.20
2016,08,14,03,13,15.20
2016,08,14,03,14,15.20
2016,08,14,03,15,15.20
2016,08,14,03,16,15.20
2016,08,14,03,17,15.20
2016,08,14,03,18,15.20
2016,08,14,03,19,15.20
2016,08,14,03,20,15.20
2016,08,14,03,21,15.20
2016,08,14,03,22,15.20
2016,08,14,03,23,15.20
2016,08,14,03,24,15.20
2016,08,14,03,25,15.20
2016,08,14,03,26,15.20
2016,08,14,03,27,15.20
2016,08,14,03,28,15.20
2016,08,14,03,29,15.20
2016,08,14,03,30,15.20
2016,08,14,03,31,15.20
2016,08,14,03,32,15.20
2016,08,14,03,33,15.20
2016,08,14,03,34,15.20
2016,08,14,03,35,15.20
2016,08,14,03,36,15.20
2016,08,14,03,37,15.20
2016,08,14,03,38,15.20
2016,08,14,03,39,15.20
2016,08,14,03,40,15.20
2016,08,14,03,41,15.20
2016,08,14,03,42,15.20
2016,08,14,03,43,15.10
2016,08,14,03,44,15.10
2016,08,14,03,45,15.10
2016,08,14,03,46,15.10
2016,08,14,03,47,15.10
2016,08,14,03,48,15.10
2016,08,14,03,49,15.00
2016,08,14,03,50,15.00
2016,08,14,03,51,15.00
2016,08,14,03,52,15.00
2016,08,14,03,53,15.00
2016,08,14,03,54,14.90
2016,08,14,03,55,14.90
2016,08,14,03,56,14.90
2016,08,14,03,57,14.90
2016,08,14,03,58,14.80
2016,08,14,03,59,14.80
2016,08,14,04,00,14.80
2016,08,14,04,01,14.80
2016,08,14,04,02,14.80
2016,08,14,04,03,14.80
2016,08,14,04,04,14.70
2016,08,14,04,05,14.70
2016,08,14,04,06,14.70
2016,08,14,04,07,14.70
2016,08,14,04,08,14.70
2016,08,14,04,09,14.70
2016,08,14,04,10,14.60
2016,08,14,04,11,14.60
2016,08,14,04,12,14.60
2016,08,14,04,13,14.60
2016,08,14,04,14,14.60
2016,08,14,04,15,14.60
2016,08,14,04,16,14.60
2016,08,14,04,17,14.50
2016,08,14,04,18,14.50
2016,08,14,04,19,14.50
2016,08,14,04,20,14.50
2016,08,14,04,21,14.40
2016,08,14,04,22,14.40
2016,08,14,04,23,14.30
2016,08,14,04,24,14.30
2016,08,14,04,25,14.30
2016,08,14,04,26,14.30
2016,08,14,04,27,14.20
2016,08,14,04,28,14.20
2016,08,14,04,29,14.20
2016,08,14,04,30,14.20
2016,08,14,04,31,14.20
2016,08,14,04,32,14.20
2016,08,14,04,33,14.20
2016,08,14,04,34,14.10
2016,08,14,04,35,14.10
2016,08,14,04,36,14.10
2016,08,14,04,37,14.10
2016,08,14,04,38,14.10
2016,08,14,04,39,14.10
2016,08,14,04,40,14.10
2016,08,14,04,41,14.10
2016,08,14,04,42,14.10
2016,08,14,04,43,14.10
2016,08,14,04,44,14.10
2016,08,14,04,45,14.10
2016,08,14,04,46,14.10
2016,08,14,04,47,14.10
2016,08,14,04,48,14.10
2016,08,14,04,49,14.10
2016,08,14,04,50,14.10
2016,08,14,04,51,14.10
2016,08,14,04,52,14.10
2016,08,14,04,53,14.10
2016,08,14,04,54,14.10
2016,08,14,04,55,14.10
2016,08,14,04,56,14.10
2016,08,14,04,57,14.10
2016,08,14,04,58,14.10
2016,08,14,04,59,14.10
2016,08,14,05,00,14.10
2016,08,14,05,01,14.10
2016,08,14,05,02,14.10
2016,08,14,05,03,14.10
2016,08,14,05,04,14.10
2016,08,14,05,05,14.10
2016,08,14,05,06,14.10
2016,08,14,05,07,14.10
2016,08,14,05,08,14.10
2016,08,14,05,09,14.10
2016,08,14,05,10,14.10
2016,08,14,05,11,14.10
2016,08,14,05,12,14.10
2016,08,14,05,13,14.10
2016,08,14,05,14,14.10
2016,08,14,05,15,14.10
2016,08,14,05,16,14.10
2016,08,14,05,17,14.10
2016,08,14,05,18,14.10
2016,08,14,05,19,14.10
2016,08,14,05,20,14.10
2016,08,14,05,21,14.10
2016,08,14,05,22,14.10
2016,08,14,05,23,14.10
2016,08,14,05,24,14.10
2016,08,14,05,25,14.10
2016,08,14,05,26,14.10
2016,08,14,05,27,14.10
2016,08,14,05,28,14.00
2016,08,14,05,29,14.00
2016,08,14,05,30,14.00
2016,08,14,05,31,14.00
2016,08,14,05,32,14.00
2016,08,14,05,33,14.00
2016,08,14,05,34,14.00
2016,08,14,05,35,14.00
2016,08,14,05,36,14.00
2016,08,14,05,37,14.00
2016,08,14,05,38,14.00
2016,08,14,05,39,14.10
2016,08,14,05,40,14.10
2016,08,14,05,41,14.10
2016,08,14,05,42,14.10
2016,08,14,05,43,14.10
2016,08,14,05,44,14.10
2016,08,14,05,45,14.10
2016,08,14,05,46,14.10
2016,08,14,05,47,14.00
2016,08,14,05,48,14.00
2016,08,14,05,49,14.00
2016,08,14,05,50,14.00
2016,08,14,05,51,14.00
2016,08,14,05,52,13.90
2016,08,14,05,53,13.90
2016,08,14,05,54,13.90
2016,08,14,05,55,13.90
2016,08,14,05,56,13.90
2016,08,14,05,57,13.80
2016,08,14,05,58,13.80
2016,08,14,05,59,13.80
2016,08,14,06,00,13.80
2016,08,14,06,01,13.80
2016,08,14,06,02,13.80
2016,08,14,06,03,13.80
2016,08,14,06,04,13.80
2016,08,14,06,05,13.80
2016,08,14,06,06,13.80
2016,08,14,06,07,13.80
2016,08,14,06,08,13.80
2016,08,14,06,09,13.80
2016,08,14,06,10,13.80
2016,08,14,06,11,13.80
2016,08,14,06,12,13.80
2016,08,14,06,13,13.80
2016,08,14,06,14,13.80
2016,08,14,06,15,13.80
2016,08,14,06,16,13.80
2016,08,14,06,17,13.80
2016,08,14,06,18,13.80
2016,08,14,06,19,13.80
2016,08,14,06,20,13.80
2016,08,14,06,21,13.80
2016,08,14,06,22,13.80
2016,08,14,06,23,13.80
2016,08,14,06,24,13.80
2016,08,14,06,25,13.80
2016,08,14,06,26,13.80
2016,08,14,06,27,13.80
2016,08,14,06,28,13.80
2016,08,14,06,29,13.80
2016,08,14,06,30,13.80
2016,08,14,06,31,13.80
2016,08,14,06,32,13.80
2016,08,14,06,33,13.80
2016,08,14,06,34,13.80
2016,08,14,06,35,13.80
2016,08,14,06,36,13.80
2016,08,14,06,37,13.80
2016,08,14,06,38,13.80
2016,08,14,06,39,13.80
2016,08,14,06,40,13.80
2016,08,14,06,41,13.80
2016,08,14,06,42,13.80
2016,08,14,06,43,13.80
2016,08,14,06,44,13.80
2016,08,14,06,45,13.80
2016,08,14,06,46,13.80
2016,08,14,06,47,13.80
2016,08,14,06,48,13.80
2016,08,14,06,49,13.80
2016,08,14,06,50,13.70
2016,08,14,06,51,13.70
2016,08,14,06,52,13.70
2016,08,14,06,53,13.70
2016,08,14,06,54,13.70
2016,08,14,06,55,13.70
2016,08,14,06,56,13.70
2016,08,14,06,57,13.70
2016,08,14,06,58,13.70
2016,08,14,06,59,13.70
2016,08,14,07,00,13.70
2016,08,14,07,01,13.70
2016,08,14,07,02,13.70
2016,08,14,07,03,13.70
2016,08,14,07,04,13.70
2016,08,14,07,05,13.70
2016,08,14,07,06,13.70
2016,08,14,07,07,13.70
2016,08,14,07,08,13.70
2016,08,14,07,09,13.70
2016,08,14,07,10,13.70
2016,08,14,07,11,13.70
2016,08,14,07,12,13.70
2016,08,14,07,13,13.70
2016,08,14,07,14,13.70
2016,08,14,07,15,13.70
2016,08,14,07,16,13.70
2016,08,14,07,17,13.70
2016,08,14,07,18,13.80
2016,08,14,07,19,13.80
2016,08,14,07,20,13.80
2016,08,14,07,21,13.80
2016,08,14,07,22,13.80
2016,08,14,07,23,13.80
2016,08,14,07,24,13.80
2016,08,14,07,25,13.80
2016,08,14,07,26,13.80
2016,08,14,07,27,13.80
2016,08,14,07,28,13.80
2016,08,14,07,29,13.90
2016,08,14,07,30,13.90
2016,08,14,07,31,14.00
2016,08,14,07,32,14.00
2016,08,14,07,33,14.10
2016,08,14,07,34,14.20
2016,08,14,07,35,14.30
2016,08,14,07,36,14.40
2016,08,14,07,37,14.50
2016,08,14,07,38,14.70
2016,08,14,07,39,14.80
2016,08,14,07,40,14.90
2016,08,14,07,41,15.00
2016,08,14,07,42,15.10
2016,08,14,07,43,15.20
2016,08,14,07,44,15.30
2016,08,14,07,45,15.30
2016,08,14,07,46,15.50
2016,08,14,07,47,15.60
2016,08,14,07,48,15.70
2016,08,14,07,49,15.90
2016,08,14,07,50,16.00
2016,08,14,07,51,16.10
2016,08,14,07,52,16.20
2016,08,14,07,53,16.30
2016,08,14,07,54,16.40
2016,08,14,07,55,16.50
2016,08,14,07,56,16.60
2016,08,14,07,57,16.70
2016,08,14,07,58,16.80
2016,08,14,07,59,16.90
2016,08,14,08,00,16.90
2016,08,14,08,01,17.00
2016,08,14,08,02,17.00
2016,08,14,08,03,17.10
2016,08,14,08,04,17.10
2016,08,14,08,05,17.20
2016,08,14,08,06,17.30
2016,08,14,08,07,17.30
2016,08,14,08,08,17.40
2016,08,14,08,09,17.40
2016,08,14,08,10,17.50
2016,08,14,08,11,17.50
2016,08,14,08,12,17.60
2016,08,14,08,13,17.60
2016,08,14,08,14,17.60
2016,08,14,08,15,17.70
2016,08,14,08,16,17.70
2016,08,14,08,17,17.80
2016,08,14,08,18,17.80
2016,08,14,08,19,17.80
2016,08,14,08,20,17.90
2016,08,14,08,21,17.90
2016,08,14,08,22,18.00
2016,08,14,08,23,18.10
2016,08,14,08,24,18.20
2016,08,14,08,25,18.20
2016,08,14,08,26,18.30
2016,08,14,08,27,18.30
2016,08,14,08,28,18.40
2016,08,14,08,29,18.40
2016,08,14,08,30,18.40
2016,08,14,08,31,18.50
2016,08,14,08,32,18.50
2016,08,14,08,33,18.60
2016,08,14,08,34,18.60
2016,08,14,08,35,18.60
2016,08,14,08,36,18.60
2016,08,14,08,37,18.60
2016,08,14,08,38,18.60
2016,08,14,08,39,18.70
2016,08,14,08,40,18.70
2016,08,14,08,41,18.70
2016,08,14,08,42,18.80
2016,08,14,08,43,18.80
2016,08,14,08,44,18.80
2016,08,14,08,45,18.80
2016,08,14,08,46,18.80
2016,08,14,08,47,18.80
2016,08,14,08,48,18.80
2016,08,14,08,49,18.90
2016,08,14,08,50,18.90
2016,08,14,08,51,19.00
2016,08,14,08,52,19.10
2016,08,14,08,53,19.10
2016,08,14,08,54,19.20
2016,08,14,08,55,19.20
2016,08,14,08,56,19.30
2016,08,14,08,57,19.30
2016,08,14,08,58,19.30
2016,08,14,08,59,19.30
2016,08,14,09,00,19.20
2016,08,14,09,01,19.20
2016,08,14,09,02,19.10
2016,08,14,09,03,19.10
2016,08,14,09,04,19.10
2016,08,14,09,05,19.10
2016,08,14,09,06,19.10
2016,08,14,09,07,19.10
2016,08,14,09,08,19.10
2016,08,14,09,09,19.10
2016,08,14,09,10,19.10
2016,08,14,09,11,19.10
2016,08,14,09,12,19.00
2016,08,14,09,13,19.10
2016,08,14,09,14,19.10
2016,08,14,09,15,19.10
2016,08,14,09,16,19.10
2016,08,14,09,17,19.20
2016,08,14,09,18,19.20
2016,08,14,09,19,19.20
2016,08,14,09,20,19.20
2016,08,14,09,21,19.30
2016,08,14,09,22,19.30
2016,08,14,09,23,19.30
2016,08,14,09,24,19.40
2016,08,14,09,25,19.40
2016,08,14,09,26,19.50
2016,08,14,09,27,19.50
2016,08,14,09,28,19.50
2016,08,14,09,29,19.60
2016,08,14,09,30,19.60
2016,08,14,09,31,19.60
2016,08,14,09,32,19.60
2016,08,14,09,33,19.60
2016,08,14,09,34,19.70
2016,08,14,09,35,19.70
2016,08,14,09,36,19.70
2016,08,14,09,37,19.70
2016,08,14,09,38,19.70
2016,08,14,09,39,19.70
2016,08,14,09,40,19.80
2016,08,14,09,41,19.80
2016,08,14,09,42,19.90
2016,08,14,09,43,19.90
2016,08,14,09,44,19.90
2016,08,14,09,45,20.00
2016,08,14,09,46,19.90
2016,08,14,09,47,19.90
2016,08,14,09,48,19.80
2016,08,14,09,49,19.70
2016,08,14,09,50,19.70
2016,08,14,09,51,19.60
2016,08,14,09,52,19.60
2016,08,14,09,53,19.60
2016,08,14,09,54,19.60
2016,08,14,09,55,19.60
2016,08,14,09,56,19.60
2016,08,14,09,57,19.60
2016,08,14,09,58,19.60
2016,08,14,09,59,19.60
2016,08,14,10,00,19.60
2016,08,14,10,01,19.60
2016,08,14,10,02,19.60
2016,08,14,10,03,19.70
2016,08,14,10,04,19.70
2016,08,14,10,05,19.70
2016,08,14,10,06,19.80
2016,08,14,10,07,19.90
2016,08,14,10,08,19.90
2016,08,14,10,09,20.00
2016,08,14,10,10,20.00
2016,08,14,10,11,20.00
2016,08,14,10,12,20.00
2016,08,14,10,13,20.10
2016,08,14,10,14,20.10
2016,08,14,10,15,20.10
2016,08,14,10,16,20.10
2016,08,14,10,17,20.20
2016,08,14,10,18,20.20
2016,08,14,10,19,20.30
2016,08,14,10,20,20.30
2016,08,14,10,21,20.30
2016,08,14,10,22,20.20
2016,08,14,10,23,20.20
2016,08,14,10,24,20.30
2016,08,14,10,25,20.30
2016,08,14,10,26,20.20
2016,08,14,10,27,20.20
2016,08,14,10,28,20.20
2016,08,14,10,29,20.20
2016,08,14,10,30,20.20
2016,08,14,10,31,20.20
2016,08,14,10,32,20.20
2016,08,14,10,33,20.20
2016,08,14,10,34,20.20
2016,08,14,10,35,20.30
2016,08,14,10,36,20.30
2016,08,14,10,37,20.40
2016,08,14,10,38,20.50
2016,08,14,10,39,20.60
2016,08,14,10,40,20.70
2016,08,14,10,41,20.70
2016,08,14,10,42,20.70
2016,08,14,10,43,20.70
2016,08,14,10,44,20.70
2016,08,14,10,45,20.70
2016,08,14,10,46,20.60
2016,08,14,10,47,20.60
2016,08,14,10,48,20.50
2016,08,14,10,49,20.60
2016,08,14,10,50,20.60
2016,08,14,10,51,20.70
2016,08,14,10,52,20.70
2016,08,14,10,53,20.60
2016,08,14,10,54,20.60
2016,08,14,10,55,20.40
2016,08,14,10,56,20.30
2016,08,14,10,57,20.20
2016,08,14,10,58,20.00
2016,08,14,10,59,19.90
2016,08,14,11,00,19.80
2016,08,14,11,01,19.80
2016,08,14,11,02,19.80
2016,08,14,11,03,19.80
2016,08,14,11,04,19.90
2016,08,14,11,05,20.00
2016,08,14,11,06,20.00
2016,08,14,11,07,20.10
2016,08,14,11,08,20.10
2016,08,14,11,09,20.20
2016,08,14,11,10,20.20
2016,08,14,11,11,20.30
2016,08,14,11,12,20.30
2016,08,14,11,13,20.30
2016,08,14,11,14,20.20
2016,08,14,11,15,20.20
2016,08,14,11,16,20.20
2016,08,14,11,17,20.30
2016,08,14,11,18,20.20
2016,08,14,11,19,20.30
2016,08,14,11,20,20.30
2016,08,14,11,21,20.30
2016,08,14,11,22,20.20
2016,08,14,11,23,20.20
2016,08,14,11,24,20.20
2016,08,14,11,25,20.20
2016,08,14,11,26,20.20
2016,08,14,11,27,20.10
2016,08,14,11,28,20.10
2016,08,14,11,29,20.00
2016,08,14,11,30,19.90
2016,08,14,11,31,20.00
2016,08,14,11,32,20.00
2016,08,14,11,33,20.20
2016,08,14,11,34,20.30
2016,08,14,11,35,20.60
2016,08,14,11,36,20.80
2016,08,14,11,37,20.90
2016,08,14,11,38,21.00
2016,08,14,11,39,21.00
2016,08,14,11,40,21.10
2016,08,14,11,41,21.20
2016,08,14,11,42,21.30
2016,08,14,11,43,21.30
2016,08,14,11,44,21.30
2016,08,14,11,45,21.30
2016,08,14,11,46,21.30
2016,08,14,11,47,21.30
2016,08,14,11,48,21.20
2016,08,14,11,49,21.20
2016,08,14,11,50,21.10
2016,08,14,11,51,21.00
2016,08,14,11,52,20.90
2016,08,14,11,53,20.80
2016,08,14,11,54,20.70
2016,08,14,11,55,20.70
2016,08,14,11,56,20.60
2016,08,14,11,57,20.60
2016,08,14,11,58,20.60
2016,08,14,11,59,20.60
2016,08,14,12,00,20.60
2016,08,14,12,01,20.70
2016,08,14,12,02,20.70
2016,08,14,12,03,20.80
2016,08,14,12,04,20.80
2016,08,14,12,05,20.90
2016,08,14,12,06,20.90
2016,08,14,12,07,20.80
2016,08,14,12,08,20.90
2016,08,14,12,09,20.90
2016,08,14,12,10,21.00
2016,08,14,12,11,21.10
2016,08,14,12,12,21.20
2016,08,14,12,13,21.20
2016,08,14,12,14,21.30
2016,08,14,12,15,21.30
2016,08,14,12,16,21.30
2016,08,14,12,17,21.20
2016,08,14,12,18,21.20
2016,08,14,12,19,21.30
2016,08,14,12,20,21.30
2016,08,14,12,21,21.30
2016,08,14,12,22,21.30
2016,08,14,12,23,21.30
2016,08,14,12,24,21.30
2016,08,14,12,25,21.30
2016,08,14,12,26,21.40
2016,08,14,12,27,21.40
2016,08,14,12,28,21.40
2016,08,14,12,29,21.40
2016,08,14,12,30,21.30
2016,08,14,12,31,21.30
2016,08,14,12,32,21.20
2016,08,14,12,33,21.20
2016,08,14,12,34,21.10
2016,08,14,12,35,21.10
2016,08,14,12,36,21.00
2016,08,14,12,37,21.00
2016,08,14,12,38,21.00
2016,08,14,12,39,21.10
2016,08,14,12,40,21.10
2016,08,14,12,41,21.20
2016,08,14,12,42,21.30
2016,08,14,12,43,21.30
2016,08,14,12,44,21.30
2016,08,14,12,45,21.30
2016,08,14,12,46,21.40
2016,08,14,12,47,21.50
2016,08,14,12,48,21.60
2016,08,14,12,49,21.70
2016,08,14,12,50,21.90
2016,08,14,12,51,22.10
2016,08,14,12,52,22.20
2016,08,14,12,53,22.30
2016,08,14,12,54,22.40
2016,08,14,12,55,22.50
2016,08,14,12,56,22.60
2016,08,14,12,57,22.50
2016,08,14,12,58,22.40
2016,08,14,12,59,22.30
2016,08,14,13,00,22.20
2016,08,14,13,01,22.20
2016,08,14,13,02,22.10
2016,08,14,13,03,22.10
2016,08,14,13,04,22.00
2016,08,14,13,05,22.00
2016,08,14,13,06,22.00
2016,08,14,13,07,22.00
2016,08,14,13,08,22.00
2016,08,14,13,09,22.00
2016,08,14,13,10,22.10
2016,08,14,13,11,22.10
2016,08,14,13,12,22.20
2016,08,14,13,13,22.30
2016,08,14,13,14,22.40
2016,08,14,13,15,22.50
2016,08,14,13,16,22.60
2016,08,14,13,17,22.50
2016,08,14,13,18,22.50
2016,08,14,13,19,22.50
2016,08,14,13,20,22.50
2016,08,14,13,21,22.60
2016,08,14,13,22,22.60
2016,08,14,13,23,22.50
2016,08,14,13,24,22.60
2016,08,14,13,25,22.60
2016,08,14,13,26,22.60
2016,08,14,13,27,22.70
2016,08,14,13,28,22.80
2016,08,14,13,29,22.90
2016,08,14,13,30,22.90
2016,08,14,13,31,22.90
2016,08,14,13,32,22.90
2016,08,14,13,33,22.90
2016,08,14,13,34,22.90
2016,08,14,13,35,23.00
2016,08,14,13,36,23.00
2016,08,14,13,37,23.00
2016,08,14,13,38,23.00
2016,08,14,13,39,23.00
2016,08,14,13,40,23.00
2016,08,14,13,41,23.00
2016,08,14,13,42,23.10
2016,08,14,13,43,23.10
2016,08,14,13,44,23.10
2016,08,14,13,45,23.10
2016,08,14,13,46,23.00
2016,08,14,13,47,23.00
2016,08,14,13,48,22.90
2016,08,14,13,49,22.90
2016,08,14,13,50,22.90
2016,08,14,13,51,22.90
2016,08,14,13,52,23.00
2016,08,14,13,53,23.20
2016,08,14,13,54,23.30
2016,08,14,13,55,23.50
2016,08,14,13,56,23.60
2016,08,14,13,57,23.70
2016,08,14,13,58,23.70
2016,08,14,13,59,23.80
2016,08,14,14,00,23.80
2016,08,14,14,01,23.70
2016,08,14,14,02,23.60
2016,08,14,14,03,23.40
2016,08,14,14,04,23.30
2016,08,14,14,05,23.20
2016,08,14,14,06,23.20
2016,08,14,14,07,23.20
2016,08,14,14,08,23.20
2016,08,14,14,09,23.20
2016,08,14,14,10,23.20
2016,08,14,14,11,23.10
2016,08,14,14,12,23.20
2016,08,14,14,13,23.20
2016,08,14,14,14,23.20
2016,08,14,14,15,23.30
2016,08,14,14,16,23.30
2016,08,14,14,17,23.40
2016,08,14,14,18,23.50
2016,08,14,14,19,23.60
2016,08,14,14,20,23.70
2016,08,14,14,21,23.70
2016,08,14,14,22,23.70
2016,08,14,14,23,23.80
2016,08,14,14,24,23.90
2016,08,14,14,25,24.00
2016,08,14,14,26,24.10
2016,08,14,14,27,24.20
2016,08,14,14,28,24.30
2016,08,14,14,29,24.30
2016,08,14,14,30,24.40
2016,08,14,14,31,24.50
2016,08,14,14,32,24.60
2016,08,14,14,33,24.60
2016,08,14,14,34,24.70
2016,08,14,14,35,24.70
2016,08,14,14,36,24.70
2016,08,14,14,37,24.80
2016,08,14,14,38,24.90
2016,08,14,14,39,24.90
2016,08,14,14,40,24.90
2016,08,14,14,41,24.90
2016,08,14,14,42,24.90
2016,08,14,14,43,25.00
2016,08,14,14,44,25.00
2016,08,14,14,45,25.10
2016,08,14,14,46,25.20
2016,08,14,14,47,25.30
2016,08,14,14,48,25.30
2016,08,14,14,49,25.40
2016,08,14,14,50,25.40
2016,08,14,14,51,25.40
2016,08,14,14,52,25.40
2016,08,14,14,53,25.40
2016,08,14,14,54,25.40
2016,08,14,14,55,25.40
2016,08,14,14,56,25.40
2016,08,14,14,57,25.40
2016,08,14,14,58,25.50
2016,08,14,14,59,25.60
2016,08,14,15,00,25.70
2016,08,14,15,01,25.60
2016,08,14,15,02,25.50
2016,08,14,15,03,25.40
2016,08,14,15,04,25.40
2016,08,14,15,05,25.40
2016,08,14,15,06,25.40
2016,08,14,15,07,25.40
2016,08,14,15,08,25.40
2016,08,14,15,09,25.50
2016,08,14,15,10,25.60
2016,08,14,15,11,25.60
2016,08,14,15,12,25.70
2016,08,14,15,13,25.80
2016,08,14,15,14,25.70
2016,08,14,15,15,25.80
2016,08,14,15,16,25.80
2016,08,14,15,17,25.80
2016,08,14,15,18,25.70
2016,08,14,15,19,25.70
2016,08,14,15,20,25.80
2016,08,14,15,21,25.80
2016,08,14,15,22,25.70
2016,08,14,15,23,25.70
2016,08,14,15,24,25.70
2016,08,14,15,25,25.70
2016,08,14,15,26,25.60
2016,08,14,15,27,25.60
2016,08,14,15,28,25.60
2016,08,14,15,29,25.60
2016,08,14,15,30,25.60
2016,08,14,15,31,25.60
2016,08,14,15,32,25.60
2016,08,14,15,33,25.60
2016,08,14,15,34,25.60
2016,08,14,15,35,25.60
2016,08,14,15,36,25.60
2016,08,14,15,37,25.60
2016,08,14,15,38,25.70
2016,08,14,15,39,25.70
2016,08,14,15,40,25.70
2016,08,14,15,41,25.80
2016,08,14,15,42,25.80
2016,08,14,15,43,25.90
2016,08,14,15,44,25.90
2016,08,14,15,45,26.00
2016,08,14,15,46,26.00
2016,08,14,15,47,26.10
2016,08,14,15,48,26.10
2016,08,14,15,49,26.00
2016,08,14,15,50,26.10
2016,08,14,15,51,26.10
2016,08,14,15,52,26.10
2016,08,14,15,53,26.20
2016,08,14,15,54,26.30
2016,08,14,15,55,26.30
2016,08,14,15,56,26.40
2016,08,14,15,57,26.40
2016,08,14,15,58,26.40
2016,08,14,15,59,26.50
2016,08,14,16,00,26.60
2016,08,14,16,01,26.60
2016,08,14,16,02,26.60
2016,08,14,16,03,26.70
2016,08,14,16,04,26.70
2016,08,14,16,05,26.60
2016,08,14,16,06,26.70
2016,08,14,16,07,26.70
2016,08,14,16,08,26.80
2016,08,14,16,09,26.80
2016,08,14,16,10,26.80
2016,08,14,16,11,26.90
2016,08,14,16,12,26.90
2016,08,14,16,13,26.90
2016,08,14,16,14,26.90
2016,08,14,16,15,27.00
2016,08,14,16,16,27.00
2016,08,14,16,17,27.10
2016,08,14,16,18,27.10
2016,08,14,16,19,27.20
2016,08,14,16,20,27.20
2016,08,14,16,21,27.30
2016,08,14,16,22,27.30
2016,08,14,16,23,27.40
2016,08,14,16,24,27.40
2016,08,14,16,25,27.30
2016,08,14,16,26,27.20
2016,08,14,16,27,27.10
2016,08,14,16,28,27.00
2016,08,14,16,29,26.90
2016,08,14,16,30,26.90
2016,08,14,16,31,26.90
2016,08,14,16,32,26.90
2016,08,14,16,33,26.90
2016,08,14,16,34,26.90
2016,08,14,16,35,26.90
2016,08,14,16,36,26.90
2016,08,14,16,37,26.90
2016,08,14,16,38,27.00
2016,08,14,16,39,27.00
2016,08,14,16,40,27.00
2016,08,14,16,41,27.00
2016,08,14,16,42,27.00
2016,08,14,16,43,27.10
2016,08,14,16,44,27.10
2016,08,14,16,45,27.20
2016,08,14,16,46,27.20
2016,08,14,16,47,27.30
2016,08,14,16,48,27.30
2016,08,14,16,49,27.40
2016,08,14,16,50,27.50
2016,08,14,16,51,27.50
2016,08,14,16,52,27.60
2016,08,14,16,53,27.60
2016,08,14,16,54,27.60
2016,08,14,16,55,27.70
2016,08,14,16,56,27.80
2016,08,14,16,57,27.80
2016,08,14,16,58,27.90
2016,08,14,16,59,27.90
2016,08,14,17,00,27.90
2016,08,14,17,01,27.90
2016,08,14,17,02,27.90
2016,08,14,17,03,27.80
2016,08,14,17,04,27.80
2016,08,14,17,05,27.80
2016,08,14,17,06,27.80
2016,08,14,17,07,27.80
2016,08,14,17,08,27.80
2016,08,14,17,09,27.80
2016,08,14,17,10,27.80
2016,08,14,17,11,27.70
2016,08,14,17,12,27.70
2016,08,14,17,13,27.70
2016,08,14,17,14,27.70
2016,08,14,17,15,27.70
2016,08,14,17,16,27.60
2016,08,14,17,17,27.60
2016,08,14,17,18,27.60
2016,08,14,17,19,27.70